Location: Cartignies
(50.0929°N, 3.8447°E)
Time: 14:49:56
(UTC+00:00)

COSMOS 2455 - Pass Details

Date: 12 January 2026
Orbit: 899 x 909 km, 67.1° (Epoch: 15 February)

Event Time Altitude Azimuth Distance (km) Brightness Sun altitude
Rises 19:28:14 0° 324° (NW) 3,549 6.4 -31.5°
Reaches altitude 10° 19:30:50 10° 329° (NNW) 2,605 5.6 -31.9°
Enters shadow 19:34:13 33° 346° (NNW) 1,496 4.0 -32.4°
